Weather History for KGGP - October, 2012

Change the Weather History Date:

Friday, October 5, 2012

  Actual Average Record
Temperature  
Mean Temperature 46 °F -  
Max Temperature 55 °F 70 °F 78 °F (2013)
Min Temperature 37 °F 49 °F 39 °F (2014)
Degree Days  
Heating Degree Days 19    
Moisture  
Dew Point 43 °F    
Average Humidity 92    
Maximum Humidity 100    
Minimum Humidity 81    
Precipitation  
Precipitation 0.52 in - - ()
Sea Level Pressure  
Sea Level Pressure 30.13 in    
Wind  
Wind Speed 7 mph ()    
Max Wind Speed 12 mph    
Max Gust Speed 17 mph    
Visibility 8.0 miles    
Events Rain    
Averages and records for this station are not official NWS values.
T = Trace of Precipitation, MM = Missing Value Source: Averaged Metar Reports

Daily Weather History Graph

Daily Weather History Graph

Search for Another Location

Airport or City:

Trip Planner

Search our weather history database for the weather conditions in past years. The results will help you decide how hot, cold, wet, or windy it might be!

Date:

Astronomy

Oct. 05, 2012 Rise Set
Actual Time 7:46 AM EDT 7:20 PM EDT
Civil Twilight 7:19 AM EDT 7:47 PM EDT
Nautical Twilight 6:47 AM EDT 8:19 PM EDT
Astronomical Twilight 6:15 AM EDT 8:50 PM EDT
Moon 10:41 PM EDT (10/5) 12:55 PM EDT (10/5)
Length of Visible Light 12h 28m
Length of Day
11h 33m
Waning Gibbous, 74% of the Moon is Illuminated
Oct 5
Waning Gibbous
Oct 8
Last Quarter
Oct 15
New
Oct 21
First Quarter
Oct 29
Full

Hourly Weather History & Observations

Time (EDT) Temp. Windchill Dew Point Humidity Pressure Visibility Wind Dir Wind Speed Gust Speed Precip Events Conditions
12:15 AM 55.4 °F - 53.6 °F 94% 30.14 in 10.0 mi West 8.1 mph - 0.01 in Rain Light Rain
12:35 AM 55.4 °F - 53.6 °F 94% 30.14 in 10.0 mi West 11.5 mph - 0.01 in Rain Light Rain
12:55 AM 55.4 °F - 53.6 °F 94% 30.12 in 10.0 mi West 6.9 mph - 0.02 in Rain Light Rain
1:15 AM 53.6 °F - 53.6 °F 100% 30.13 in 10.0 mi West 9.2 mph - N/A Rain Light Rain
1:35 AM 53.6 °F - 51.8 °F 94% 30.13 in 10.0 mi West 10.4 mph - N/A   Overcast
1:55 AM 51.8 °F - 51.8 °F 100% 30.13 in 10.0 mi WNW 6.9 mph - N/A   Overcast
2:15 AM 51.8 °F - 50.0 °F 94% 30.14 in 10.0 mi West 4.6 mph - N/A   Overcast
2:35 AM 51.8 °F - 50.0 °F 94% 30.14 in 10.0 mi West 5.8 mph - N/A   Mostly Cloudy
2:55 AM 50.0 °F - 48.2 °F 94% 30.13 in 10.0 mi West 5.8 mph - N/A   Mostly Cloudy
3:15 AM 50.0 °F - 48.2 °F 94% 30.13 in 10.0 mi West 4.6 mph - N/A   Scattered Clouds
3:35 AM 50.0 °F - 48.2 °F 94% 30.13 in 10.0 mi West 6.9 mph - N/A   Overcast
3:55 AM 50.0 °F - 48.2 °F 94% 30.14 in 10.0 mi West 5.8 mph - N/A   Mostly Cloudy
4:15 AM 50.0 °F - 48.2 °F 94% 30.16 in 10.0 mi West 9.2 mph - N/A   Mostly Cloudy
4:35 AM 50.0 °F - 46.4 °F 87% 30.17 in 10.0 mi WNW 6.9 mph 16.1 mph N/A   Light Drizzle
4:55 AM 50.0 °F - 46.4 °F 87% 30.17 in 10.0 mi West 10.4 mph 17.3 mph N/A   Drizzle
5:15 AM 48.2 °F - 46.4 °F 93% 30.15 in 3.0 mi NW 4.6 mph - 0.05 in Rain Rain
5:35 AM 48.2 °F - 46.4 °F 93% 30.14 in 7.0 mi NW 4.6 mph - 0.06 in Rain Rain
5:55 AM 46.4 °F 43.5 °F 44.6 °F 93% 30.17 in 7.0 mi WNW 5.8 mph - 0.09 in Rain Rain
6:15 AM 46.4 °F - 42.8 °F 87% 30.15 in 3.0 mi Calm Calm - 0.04 in Rain Heavy Rain
6:35 AM 46.4 °F 42.4 °F 44.6 °F 93% 30.17 in 10.0 mi West 8.1 mph - 0.06 in Rain Light Rain
6:55 AM 44.6 °F 41.4 °F 44.6 °F 100% 30.16 in 4.0 mi West 5.8 mph - 0.09 in Rain Rain
7:15 AM 44.6 °F 41.4 °F 44.6 °F 100% 30.16 in 5.0 mi West 5.8 mph - 0.01 in Rain Rain
7:35 AM 44.6 °F 41.4 °F 42.8 °F 93% 30.18 in 3.0 mi West 5.8 mph - 0.05 in Rain Light Rain
7:55 AM 44.6 °F 42.2 °F 42.8 °F 93% 30.16 in 3.0 mi West 4.6 mph - 0.10 in Rain Rain
8:15 AM 44.6 °F 41.4 °F 42.8 °F 93% 30.15 in 7.0 mi West 5.8 mph - N/A Rain Rain
8:35 AM 44.6 °F 40.7 °F 42.8 °F 93% 30.15 in 10.0 mi West 6.9 mph - N/A   Overcast
8:55 AM 44.6 °F 40.2 °F 42.8 °F 93% 30.16 in 10.0 mi West 8.1 mph - N/A   Overcast
9:15 AM 44.6 °F 41.4 °F 42.8 °F 93% 30.15 in 4.0 mi West 5.8 mph - 0.01 in Rain Light Rain
9:35 AM 44.6 °F 40.7 °F 42.8 °F 93% 30.16 in 4.0 mi West 6.9 mph - 0.03 in Rain Rain
9:55 AM 44.6 °F 40.2 °F 42.8 °F 93% 30.16 in 10.0 mi West 8.1 mph - 0.04 in Rain Light Rain
10:15 AM 44.6 °F 40.2 °F 42.8 °F 93% 30.16 in 10.0 mi West 8.1 mph - N/A   Overcast
10:35 AM 44.6 °F 42.2 °F 41.0 °F 87% 30.17 in 10.0 mi West 4.6 mph - N/A   Overcast
10:55 AM 44.6 °F 40.2 °F 42.8 °F 93% 30.17 in 10.0 mi West 8.1 mph - N/A   Overcast
11:15 AM 44.6 °F 41.4 °F 42.8 °F 93% 30.16 in 10.0 mi West 5.8 mph - N/A   Overcast
11:35 AM 44.6 °F 41.4 °F 42.8 °F 93% 30.16 in 10.0 mi West 5.8 mph - N/A   Overcast
11:55 AM 44.6 °F 42.2 °F 41.0 °F 87% 30.16 in 10.0 mi West 4.6 mph - N/A   Overcast
12:35 PM 44.6 °F 40.7 °F 41.0 °F 87% 30.15 in 10.0 mi West 6.9 mph - N/A   Overcast
12:55 PM 44.6 °F 40.7 °F 39.2 °F 81% 30.16 in 10.0 mi West 6.9 mph - N/A   Overcast
1:15 PM 44.6 °F 40.7 °F 39.2 °F 81% 30.16 in 10.0 mi West 6.9 mph - N/A   Overcast
1:35 PM 44.6 °F 41.4 °F 41.0 °F 87% 30.14 in 5.0 mi WNW 5.8 mph - N/A Rain Light Rain
1:55 PM 44.6 °F 41.4 °F 39.2 °F 81% 30.13 in 10.0 mi NW 5.8 mph - N/A   Overcast
2:35 PM 44.6 °F 41.4 °F 41.0 °F 87% 30.12 in 10.0 mi West 5.8 mph - N/A   Light Drizzle
2:55 PM 44.6 °F 41.4 °F 41.0 °F 87% 30.11 in 4.0 mi WNW 5.8 mph - 0.01 in Rain Rain
3:15 PM 44.6 °F 40.2 °F 42.8 °F 93% 30.11 in 7.0 mi West 8.1 mph - 0.01 in Rain Light Rain
3:35 PM 44.6 °F 40.2 °F 41.0 °F 87% 30.12 in 7.0 mi WNW 8.1 mph - 0.01 in Rain Light Rain
3:55 PM 44.6 °F 39.7 °F 41.0 °F 87% 30.12 in 10.0 mi West 9.2 mph - 0.01 in Rain Rain
4:15 PM 42.8 °F 39.3 °F 41.0 °F 93% 30.10 in 7.0 mi West 5.8 mph - N/A Rain Light Rain
4:35 PM 42.8 °F - 41.0 °F 93% 30.07 in 4.0 mi Calm Calm - 0.01 in Rain Light Rain
4:55 PM 42.8 °F 38.6 °F 41.0 °F 93% 30.09 in 10.0 mi West 6.9 mph - 0.01 in Rain Light Rain
5:15 PM 42.8 °F 38.0 °F 41.0 °F 93% 30.10 in 7.0 mi West 8.1 mph - N/A Rain Rain
5:35 PM 42.8 °F 37.5 °F 41.0 °F 93% 30.11 in 4.0 mi West 9.2 mph - 0.01 in Rain Rain
5:55 PM 42.8 °F 39.3 °F 41.0 °F 93% 30.11 in 2.5 mi West 5.8 mph - 0.06 in Rain Rain
6:15 PM 41.0 °F 36.4 °F 37.4 °F 87% 30.09 in 7.0 mi WNW 6.9 mph - N/A Rain Light Rain
6:35 PM 41.0 °F 35.2 °F 39.2 °F 93% 30.13 in 10.0 mi West 9.2 mph - 0.01 in   Overcast
6:55 PM 41.0 °F 36.4 °F 39.2 °F 93% 30.11 in 7.0 mi WNW 6.9 mph - 0.01 in   Overcast
7:15 PM 41.0 °F 35.8 °F 39.2 °F 93% 30.10 in 4.0 mi WNW 8.1 mph - 0.02 in   Overcast
7:35 PM 41.0 °F 36.4 °F 37.4 °F 87% 30.12 in 5.0 mi West 6.9 mph - 0.04 in   Unknown
7:55 PM 41.0 °F 37.1 °F 39.2 °F 93% 30.11 in 5.0 mi West 5.8 mph - 0.05 in   Overcast
8:15 PM 41.0 °F 36.4 °F 39.2 °F 93% 30.11 in 7.0 mi West 6.9 mph - N/A   Overcast
8:35 PM 41.0 °F 34.7 °F 39.2 °F 93% 30.12 in 10.0 mi West 10.4 mph - 0.01 in   Overcast
8:55 PM 41.0 °F 35.2 °F 39.2 °F 93% 30.11 in 5.0 mi West 9.2 mph - 0.01 in   Overcast
9:15 PM 41.0 °F 35.8 °F 37.4 °F 87% 30.11 in 7.0 mi West 8.1 mph - 0.01 in   Overcast
9:35 PM 41.0 °F 39.0 °F 37.4 °F 87% 30.08 in 7.0 mi WNW 3.5 mph - 0.01 in   Overcast
9:55 PM 39.2 °F 35.9 °F 37.4 °F 93% 30.07 in 10.0 mi West 4.6 mph - 0.02 in   Overcast
10:15 PM 39.2 °F 35.0 °F 37.4 °F 93% 30.08 in 10.0 mi West 5.8 mph - N/A   Overcast
10:35 PM 39.2 °F 34.2 °F 37.4 °F 93% 30.08 in 10.0 mi WSW 6.9 mph - N/A   Overcast
10:55 PM 39.2 °F 33.0 °F 37.4 °F 93% 30.09 in 10.0 mi West 9.2 mph - N/A   Overcast
11:15 PM 37.4 °F 30.8 °F 35.6 °F 93% 30.09 in 10.0 mi West 9.2 mph - N/A   Scattered Clouds
11:35 PM 37.4 °F 31.4 °F 35.6 °F 93% 30.09 in 10.0 mi West 8.1 mph - N/A   Clear
11:55 PM 37.4 °F 32.1 °F 35.6 °F 93% 30.08 in 10.0 mi WSW 6.9 mph - N/A   Clear